Home   Weather   Kryvyi Rih   Past weeks
Flag for Ukraine

Past Weather in Kryvyi Rih, Ukraine — Yesterday and Last 2 Weeks

Now
77 °F

Scattered clouds.


Feels Like: 78 °F
Forecast: 82 / 61 °F
Wind: 8 mph from West

Location: Krivyy Rih / Dnipropetrovs'k

Current Time: May 27, 2019 at 2:59:23 pm

Latest Report: May 27, 2019 at 2:30 pm


Visibility: N/A

Pressure: 30.04 "Hg

Humidity: 44%

Dew Point: 54 °F

Location of Kryvyi RihLocation

Past Weather in Kryvyi Rih — Graph

°F

Kryvyi Rih Temperature Yesterday

Maximum temperature yesterday: 75 °F (at 3:00 pm)
Minimum temperature yesterday: 57 °F (at 2:00 am)
Average temperature yesterday: 66 °F

High & Low Weather Summary for the Past Weeks

 TemperatureHumidityPressure
High84 °F (May 17, 3:00 pm)94% (May 13, 2:00 am)30.18 "Hg (May 13, 2:00 am)
Low48 °F (May 14, 4:30 am)32% (May 19, 2:30 pm)29.68 "Hg (May 25, 4:00 pm)
Average67 °F65%29.91 "Hg
* Reported May 12 2:00 pm — May 27 2:00 pm, Kryvyi Rih. Weather by CustomWeather, © 2019

Note: Actual official high and low records may vary slightly from our data, if they occured in-between our weather recording intervals... More about our weather records

Advertising

Kryvyi Rih Weather History for the Previous 24 Hours

Scroll right to see more
 ConditionsComfort  
Time TempWeatherWind HumidityBarometerVisibility
2:00 pm
Mon, May 27
77 °FScattered clouds.3 mph44%30.04 "HgN/A
1:30 pm77 °FScattered clouds.1 mph44%30.04 "HgN/A
1:00 pm77 °FScattered clouds.6 mph44%30.04 "HgN/A
12:30 pm75 °FScattered clouds.3 mph44%30.04 "HgN/A
12:00 pm75 °FPartly sunny.6 mph44%30.04 "HgN/A
11:00 am73 °FSunny.No wind47%30.04 "Hg10 mi
10:30 am72 °FSunny.1 mph57%30.04 "Hg10 mi
10:00 am72 °FSunny.1 mph57%30.07 "Hg10 mi
9:30 am70 °FSunny.No wind57%30.04 "Hg10 mi
9:00 am70 °FSunny.No wind57%30.04 "Hg10 mi
8:30 am66 °FSunny.No wind64%30.04 "Hg10 mi
8:00 am66 °FSunny.No wind64%30.04 "Hg10 mi
7:30 am61 °FSunny.1 mph72%30.04 "Hg10 mi
7:00 am61 °FSunny.No wind72%30.01 "Hg10 mi
6:30 am57 °FSunny.No wind72%30.01 "Hg10 mi
6:00 am57 °FSunny.No wind72%30.01 "Hg10 mi
5:30 am55 °FSunny.3 mph77%30.01 "Hg10 mi
5:00 am55 °FSunny.3 mph77%29.98 "Hg10 mi
4:00 am55 °FClear.6 mph82%29.98 "Hg10 mi
3:30 am57 °FClear.3 mph77%29.98 "Hg10 mi
3:00 am57 °FClear.6 mph77%29.98 "Hg10 mi
2:30 am59 °FClear.6 mph72%29.98 "Hg10 mi
2:00 am59 °FClear.6 mph72%29.98 "Hg10 mi
1:30 am59 °FClear.6 mph72%29.95 "Hg10 mi
1:00 am59 °FClear.6 mph72%29.95 "Hg10 mi
12:30 am61 °FClear.6 mph72%29.95 "Hg10 mi
12:00 am61 °FClear.6 mph72%29.95 "Hg10 mi
11:30 pm
Sun, May 26
63 °FClear.6 mph64%29.95 "Hg10 mi
11:00 pm63 °FClear.3 mph64%29.95 "Hg10 mi
10:30 pm63 °FClear.3 mph64%29.92 "Hg10 mi
10:00 pm63 °FClear.3 mph64%29.92 "Hg10 mi
9:30 pm66 °FClear.3 mph56%29.92 "Hg10 mi
9:00 pm66 °FClear.3 mph56%29.89 "Hg10 mi
8:30 pm68 °FSunny.6 mph53%29.89 "Hg10 mi
8:00 pm68 °FSunny.6 mph53%29.89 "Hg10 mi
7:30 pm73 °FSunny.6 mph41%29.86 "Hg10 mi
7:00 pm73 °FSunny.8 mph41%29.86 "Hg10 mi
6:30 pm75 °FSunny.13 mph44%29.86 "Hg10 mi
6:00 pm75 °FSunny.13 mph44%29.83 "Hg10 mi
5:30 pm73 °FPassing clouds.13 mph50%29.83 "HgN/A
5:00 pm73 °FSunny.15 mph50%29.83 "Hg10 mi
4:30 pm73 °FPassing clouds.8 mph53%29.83 "HgN/A
4:00 pm73 °FPassing clouds.10 mph53%29.83 "HgN/A
3:30 pm75 °FPassing clouds.15 mph50%29.80 "HgN/A
3:00 pm75 °FSunny.15 mph50%29.80 "Hg10 mi
2:30 pm73 °FPassing clouds.15 mph65%29.83 "HgN/A
2:00 pm72 °FPassing clouds.8 mph65%29.80 "HgN/A
Weather by CustomWeather, © 2019

See weather overview